Regional Weather Roundup
Issued by NWS Mt. Holly, NJ

Home | Current Version | Previous Version | Text Only | Print | Product List | Glossary On
Versions: 1 2 3 4 5 6 7 8 9 10 11 12 13 14 15 16 17 18 19 20 21 22 23 24 25 26 27 28
000
ASUS41 KPHI 230612
RWRPHI

REGIONAL WEATHER ROUNDUP
NATIONAL WEATHER SERVICE MOUNT HOLLY NJ
200 AM EDT FRI JUN 23 2017

NOTE:  "FAIR" INDICATES FEW OR NO CLOUDS BELOW 12,000 FEET WITH NO
SIGNIFICANT WEATHER AND/OR OBSTRUCTIONS TO VISIBILITY.

 * = STATION DOES NOT REPORT PRECIPITATION (E.G. RAIN, SNOW, ETC.)
        OR FOG.

NJZ015>026-230700-
SOUTHERN NEW JERSEY

CITY           SKY/WX    TMP DP  RH WIND       PRES   REMARKS
POMONA         NOT AVBL
WILDWOOD*      CLOUDY    76  73  91 S3        29.92F
MILLVILLE      PTCLDY    77  75  93 CALM      29.90F
WRIGHTSTOWN    PTCLDY    74  71  91 SW3       29.87F
MOUNT HOLLY    CLOUDY    74  71  91 CALM      29.89F
TRENTON        MOCLDY    77  71  82 SW3       29.88F
6HR MIN TEMP:  77; 6HR MAX TEMP:  84;


$$
NJZ001>014-230700-
NORTHERN NEW JERSEY

CITY           SKY/WX    TMP DP  RH WIND       PRES   REMARKS
SUSSEX         PTCLDY    70  68  93 CALM      29.88F
ANDOVER*         N/A     72  69  90 CALM      29.89F
MORRISTOWN     CLOUDY    75  70  83 CALM      29.87F
NEWARK         CLOUDY    79  69  71 SW9       29.87F
TETERBORO      CLOUDY    79  70  74 S5        29.85F
CALDWELL       CLOUDY    79  69  71 SW3       29.87F
SOMERVILLE     CLOUDY    72  70  93 CALM      29.86F
ALLAIRE*       PTCLDY    75  71  87 SW5       29.90F
TOMS RIVER*    PTCLDY    74  71  91 SW5       29.90F

$$
PAZ043-044-047-054-055-060>062-066>071-230700-
EASTERN PENNSYLVANIA

CITY           SKY/WX    TMP DP  RH WIND       PRES   REMARKS
PHILADELPHIA   MOCLDY    79  71  76 SW7       29.90F
6HR MIN TEMP:  78; 6HR MAX TEMP:  86;

NORTH PHILA    PTCLDY    79  71  76 SW5       29.90F
BLUE BELL*     MOCLDY    72  70  94 CALM      29.91F
DOYLESTOWN     MOCLDY    73  70  90 S3        29.89F
QUAKERTOWN*    PTCLDY    72  72 100 CALM      29.91F
PERKASIE*      FAIR      70  70 100 CALM      29.91F
POTTSTOWN      PTCLDY    75  70  84 CALM      29.91F
LANCASTER      PTCLDY    74  72  93 CALM      29.90F
COATESVILLE    MOCLDY    75  72  88 CALM      29.93F
READING        MOCLDY    73  73 100 SW3       29.89F
6HR MIN TEMP:  73; 6HR MAX TEMP:  84; 6HR PCP:  0.01;

ALLENTOWN      CLOUDY    75  69  81 SW7       29.89F
6HR MIN TEMP:  75; 6HR MAX TEMP:  84;

MOUNT POCONO   CLOUDY    68  67  96 W3        29.95F
6HR MIN TEMP:  68; 6HR MAX TEMP:  75;

HAZLETON         N/A     70  64  83 CALM      29.96F
LEHIGHTON      FAIR      72  70  94 CALM      29.90F
WILKES BARRE   CLOUDY    74  68  81 SW3       29.89F

$$
DEZALL-MDZ008-012-015-019-020-230700-
DELAWARE AND EASTERN MARYLAND

CITY           SKY/WX    TMP DP  RH WIND       PRES   REMARKS
WILMINGTON     CLOUDY    78  73  84 SW3       29.90F
6HR MIN TEMP:  78; 6HR MAX TEMP:  83;

DOVER          MOCLDY    76  76 100 S7        29.89F
GEORGETOWN     CLEAR     76  73  91 SW5       29.94F
6HR MIN TEMP:  76; 6HR MAX TEMP:  83;

EASTON         MOCLDY    80  72  75 W6        29.96F
ABERDEEN       MOCLDY    75  74  94 SW6       29.89F
PATUXENT       CLOUDY    78  69  73 SW10      29.93F
OCEAN CITY     MOCLDY    77  74  90 W5        29.94F
WALLOPS ISLAND CLOUDY    77  73  87 SW5       29.95F
CAMBRIDGE      CLEAR     77  73  88 CALM      29.93F
SALISBURY      MOCLDY    75  74  96 S5        29.94F

$$
PAZ001-021-NYZ056-072-MDZ011-DCZ001-230700-
OTHER NEARBY LOCATIONS

CITY           SKY/WX    TMP DP  RH WIND       PRES   REMARKS
HARRISBURG     MOCLDY    72  70  93 CALM      29.89F
STATE COLLEGE  PTCLDY    67  65  95 SW6       29.91F
WILLIAMSPORT   MOCLDY    71  68  90 CALM      29.86F
BINGHAMTON     NOT AVBL
NEW YORK CITY  CLOUDY    80  69  69 CALM      29.89F
BALTIMORE      CLOUDY    76  74  93 SW6       29.90F
WASHINGTON DC  CLOUDY    79  72  79 SW8       29.92F

$$




USA.gov is the U.S. government's official web portal to all federal, state and local government web resources and services.